Tracking 23752 objects as of 24-Oct-2021
HD Live streaming from Space Station
objects crossing your sky now

COSMOS 1375 DEB

Track COSMOS 1375 DEB now!
10-day predictions


NORAD ID: 17803
Int'l Code: 1982-055AV
Perigee: 938.9 km
Apogee: 1,005.4 km
Inclination: 65.8 °
Period: 104.4 minutes
Semi major axis: 7343 km
RCS: 0.014 m2 (small)
Launch date: June 6, 1982
Source: Commonwealth of Independent States (former USSR) (CIS)
Launch site: PLESETSK MISSILE AND SPACE COMPLEX (PKMTR)

Note: This is SATELLITE DEBRIS
aabbcc
Your satellite tracking list
Your tracking list is empty




NASA's NSSDC Master Catalog

Two Line Element Set (TLE):
1 17803U 82055AV  21295.99851670  .00000042  00000-0  11907-3 0  9990
2 17803  65.8307 141.3952 0045244 336.1132 140.1466 13.79687797809512
Source of the keplerian elements: AFSPC